Highgate, VT

12:04 AM EST on November 17, 2019 (GMT -0500)
Franklin County State

Weather History for KFSO - September, 2019

Change the Weather History Date:

Saturday, September 7, 2019

  Actual Average (WUND) Record (WUND)
Temperature  
Mean Temperature 63 °F -  
Max Temperature 73 °F - - (-1)
Min Temperature 54 °F - - (-1)
Degree Days  
Heating Degree Days 2    
Growing Degree Days 13 (Base 50)    
Moisture  
Dew Point 54 °F    
Average Humidity 78    
Maximum Humidity 96    
Minimum Humidity 44    
Precipitation  
Precipitation 0.00 in - - ()
Sea Level Pressure  
Sea Level Pressure 29.80 in    
Wind  
Wind Speed 2 mph (ENE)    
Max Wind Speed 8 mph    
Max Gust Speed -    
Visibility 10 miles    
Events Rain    
Averages and records for this station are not official NWS values.
T = Trace of Precipitation, MM = Missing Value Source: NWS Daily Summary

Daily Weather History Graph

Daily Weather History Graph

Search for Another Location

Airport or City:

Astronomy

Sep. 07, 2019 Rise Set
Actual Time 6:21 AM EDT 7:18 PM EDT
Civil Twilight 5:51 AM EDT 7:48 PM EDT
Nautical Twilight 5:15 AM EDT 8:24 PM EDT
Astronomical Twilight 4:38 AM EDT 9:01 PM EDT
Moon 3:44 PM EDT (9/7) No Moon Set
Length of Visible Light 13h 57m
Length of Day
12h 57m
Waxing Gibbous, 65% of the Moon is Illuminated
Sep 7
Waxing Gibbous
Sep 14
Full
Sep 21
Last Quarter
Sep 28
New
Oct 5
First Quarter

Hourly Weather History & Observations

Time (EDT) Temp. Dew Point Humidity Pressure Visibility Wind Dir Wind Speed Gust Speed Precip Events Conditions
12:16 AM 59.0 °F 55.9 °F 90% 29.89 in 10.0 mi Calm Calm - N/A   Clear
12:35 AM 58.8 °F 55.9 °F 90% 29.87 in 10.0 mi ESE 3.5 mph - N/A   Clear
12:55 AM 58.8 °F 55.9 °F 90% 29.87 in 10.0 mi Calm Calm - N/A   Clear
1:15 AM 58.8 °F 55.8 °F 90% 29.88 in 10.0 mi SE 3.5 mph - N/A   Clear
1:35 AM 59.2 °F 55.4 °F 87% 29.87 in 10.0 mi East 4.6 mph - N/A   Clear
1:56 AM 59.0 °F 55.4 °F 88% 29.87 in 10.0 mi East 6.9 mph - N/A   Clear
2:16 AM 59.0 °F 55.4 °F 88% 29.87 in 10.0 mi SE 3.5 mph - N/A   Clear
2:36 AM 59.4 °F 54.7 °F 84% 29.87 in 10.0 mi ESE 4.6 mph - N/A   Clear
2:56 AM 59.2 °F 54.0 °F 83% 29.86 in 10.0 mi Calm Calm - N/A   Clear
3:15 AM 59.2 °F 53.6 °F 82% 29.85 in 10.0 mi Calm Calm - N/A   Clear
3:35 AM 58.5 °F 54.5 °F 87% 29.84 in 10.0 mi SSE 3.5 mph - N/A   Clear
3:55 AM 57.9 °F 54.7 °F 89% 29.84 in 10.0 mi ESE 3.5 mph - N/A   Clear
4:16 AM 57.7 °F 54.1 °F 88% 29.83 in 10.0 mi East 4.6 mph - N/A   Clear
4:36 AM 57.4 °F 54.3 °F 90% 29.83 in 10.0 mi SSE 3.5 mph - N/A   Clear
4:55 AM 56.7 °F 53.8 °F 90% 29.83 in 10.0 mi SE 3.5 mph - N/A   Clear
5:16 AM 56.5 °F 54.0 °F 91% 29.83 in 10.0 mi East 3.5 mph - N/A   Clear
5:35 AM 56.5 °F 54.0 °F 91% 29.83 in 10.0 mi East 4.6 mph - N/A   Clear
5:56 AM 57.2 °F 53.6 °F 88% 29.83 in 10.0 mi Calm Calm - N/A   Clear
6:15 AM 56.8 °F 53.2 °F 88% 29.83 in 10.0 mi ESE 3.5 mph - N/A   Clear
6:36 AM 56.7 °F 53.2 °F 88% 29.83 in 10.0 mi ESE 3.5 mph - N/A   Clear
6:55 AM 55.8 °F 53.1 °F 91% 29.83 in 10.0 mi Calm Calm - N/A   Scattered Clouds
7:15 AM 54.9 °F 52.9 °F 93% 29.83 in 10.0 mi Calm Calm - N/A   Mostly Cloudy
7:36 AM 55.6 °F 53.4 °F 92% 29.83 in 10.0 mi Calm Calm - N/A   Mostly Cloudy
7:55 AM 57.2 °F 53.4 °F 87% 29.83 in 10.0 mi Calm Calm - N/A   Scattered Clouds
8:16 AM 59.5 °F 53.2 °F 80% 29.82 in 10.0 mi Calm Calm - N/A   Clear
8:36 AM 60.4 °F 53.1 °F 77% 29.82 in 10.0 mi Calm Calm - N/A   Clear
8:56 AM 62.8 °F 51.1 °F 66% 29.82 in 10.0 mi East 3.5 mph - N/A   Clear
9:16 AM 65.3 °F 51.3 °F 60% 29.81 in 10.0 mi East 5.8 mph - N/A   Clear
9:36 AM 65.8 °F 52.2 °F 61% 29.81 in 10.0 mi ENE 4.6 mph - N/A   Clear
9:55 AM 67.1 °F 51.4 °F 57% 29.80 in 10.0 mi ESE 3.5 mph - N/A   Clear
10:15 AM 68.2 °F 50.7 °F 54% 29.79 in 10.0 mi Calm Calm - N/A   Clear
10:35 AM 68.7 °F 49.1 °F 50% 29.79 in 10.0 mi North 4.6 mph - N/A   Clear
10:56 AM 69.8 °F 49.3 °F 48% 29.79 in 10.0 mi NNE 6.9 mph - N/A   Scattered Clouds
11:15 AM 68.9 °F 48.6 °F 48% 29.79 in 10.0 mi North 6.9 mph - N/A   Mostly Cloudy
11:35 AM 70.3 °F 49.3 °F 47% 29.79 in 10.0 mi North 8.1 mph - N/A   Overcast
11:56 AM 70.5 °F 48.7 °F 46% 29.78 in 10.0 mi North 5.8 mph - N/A   Mostly Cloudy
12:15 PM 70.7 °F 50.4 °F 48% 29.77 in 10.0 mi NE 4.6 mph - N/A   Scattered Clouds
12:35 PM 70.9 °F 50.7 °F 49% 29.76 in 10.0 mi WNW 3.5 mph - N/A   Clear
12:55 PM 72.1 °F 50.0 °F 46% 29.76 in 10.0 mi Calm Calm - N/A   Clear
1:16 PM 72.7 °F 49.5 °F 44% 29.75 in 10.0 mi West 5.8 mph - N/A   Clear
1:35 PM 70.9 °F 50.5 °F 48% 29.74 in 10.0 mi WNW 3.5 mph - N/A   Scattered Clouds
1:56 PM 72.5 °F 49.8 °F 45% 29.74 in 10.0 mi West 5.8 mph - N/A   Overcast
2:15 PM 72.1 °F 49.8 °F 45% 29.73 in 10.0 mi Calm Calm - N/A   Overcast
2:36 PM 70.3 °F 48.7 °F 46% 29.73 in 10.0 mi NW 3.5 mph - N/A   Overcast
2:55 PM 69.3 °F 50.4 °F 51% 29.73 in 10.0 mi Calm Calm - N/A   Overcast
3:15 PM 68.7 °F 50.9 °F 53% 29.73 in 10.0 mi Calm Calm - N/A   Overcast
3:35 PM 68.7 °F 53.4 °F 58% 29.73 in 10.0 mi West 3.5 mph - N/A   Overcast
3:56 PM 67.5 °F 54.0 °F 62% 29.73 in 10.0 mi Calm Calm - N/A   Overcast
4:15 PM 66.4 °F 55.0 °F 67% 29.74 in 10.0 mi WNW 4.6 mph - N/A   Drizzle
4:36 PM 64.6 °F 57.7 °F 78% 29.74 in 10.0 mi West 4.6 mph - N/A   Overcast
4:56 PM 64.0 °F 58.6 °F 83% 29.75 in 10.0 mi West 5.8 mph - N/A Rain Light Rain
5:16 PM 62.2 °F 57.7 °F 85% 29.75 in 10.0 mi West 3.5 mph - N/A Rain Light Rain
5:36 PM 61.7 °F 58.1 °F 88% 29.75 in 10.0 mi WSW 4.6 mph - N/A Rain Light Rain
5:56 PM 60.8 °F 58.6 °F 93% 29.76 in 7.0 mi WSW 3.5 mph - N/A Rain Light Rain
6:16 PM 60.4 °F 59.0 °F 95% 29.76 in 10.0 mi Calm Calm - N/A Rain Rain
6:36 PM 60.3 °F 59.0 °F 96% 29.77 in 10.0 mi Calm Calm - N/A Rain Rain
6:56 PM 60.3 °F 59.0 °F 96% 29.77 in 7.0 mi Calm Calm - N/A   Drizzle
7:15 PM 60.3 °F 59.0 °F 96% 29.77 in 4.0 mi Calm Calm - N/A   Heavy Drizzle
7:36 PM 59.0 °F 57.9 °F 96% 29.77 in 10.0 mi Calm Calm - N/A   Overcast
7:55 PM 58.6 °F 57.4 °F 96% 29.77 in 10.0 mi Calm Calm - N/A   Overcast
8:15 PM 58.8 °F 57.4 °F 95% 29.78 in 10.0 mi Calm Calm - N/A   Overcast
8:36 PM 59.0 °F 57.7 °F 96% 29.78 in 10.0 mi Calm Calm - N/A   Overcast
8:55 PM 59.2 °F 58.1 °F 96% 29.79 in 10.0 mi Calm Calm - N/A   Overcast
9:16 PM 59.5 °F 58.3 °F 96% 29.79 in 7.0 mi Calm Calm - N/A Rain Rain
9:35 PM 59.4 °F 58.1 °F 96% 29.78 in 5.0 mi NNW 3.5 mph - N/A Rain Light Rain
9:56 PM 58.1 °F 56.7 °F 95% 29.79 in 10.0 mi NNE 3.5 mph - N/A Rain Light Rain
10:15 PM 57.4 °F 56.3 °F 96% 29.78 in 10.0 mi Calm Calm - N/A Rain Light Rain
10:36 PM 56.8 °F 55.6 °F 96% 29.78 in 10.0 mi Calm Calm - N/A   Scattered Clouds
10:55 PM 57.2 °F 55.8 °F 95% 29.78 in 10.0 mi Calm Calm - N/A   Overcast
11:16 PM 56.7 °F 55.4 °F 96% 29.79 in 7.0 mi Calm Calm - N/A   Mostly Cloudy
11:36 PM 56.8 °F 55.6 °F 96% 29.79 in 10.0 mi Calm Calm - N/A   Overcast
11:55 PM 56.8 °F 55.6 °F 96% 29.79 in 10.0 mi Calm Calm - N/A   Overcast